| time (UTC) | temp F | wind direction | speed MPH | gust MPH | rain 1hr in | rain 24hr in | rain mn in | humidity % | barometer mb |
| 20260904054537 | 52 | 202 | 0.0 | 0.0 | 0.00 | 0.19 | 0.16 | 91 | 1011.1 |
| 20260904053037 | 52 | 202 | 0.0 | 0.0 | 0.00 | 0.19 | 0.16 | 90 | 1011.2 |
| 20260904051530 | 53 | 202 | 0.0 | 0.0 | 0.00 | 0.19 | 0.16 | 90 | 1011.2 |
| 20260904050034 | 53 | 202 | 0.0 | 1.0 | 0.00 | 0.19 | 0.16 | 90 | 1011.2 |
| 20260904044530 | 53 | 222 | 0.0 | 1.0 | 0.00 | 0.20 | 0.16 | 89 | 1011.3 |
| 20260904043032 | 54 | 270 | 0.0 | 0.0 | 0.00 | 0.20 | 0.16 | 87 | 1011.2 |
| 20260904040035 | 54 | 270 | 0.0 | 0.0 | 0.00 | 0.20 | 0.16 | 87 | 1011.2 |
| 20260904034541 | 54 | 270 | 0.0 | 0.0 | 0.00 | 0.20 | 0.16 | 86 | 1011.2 |
| 20260904033029 | 54 | 270 | 0.0 | 1.0 | 0.00 | 0.20 | 0.16 | 85 | 1011.0 |
| 20260904031535 | 55 | 270 | 0.0 | 0.0 | 0.00 | 0.20 | 0.16 | 84 | 1010.9 |
| 20260904030030 | 56 | 258 | 0.0 | 3.0 | 0.00 | 0.23 | 0.16 | 84 | 1010.8 |
| 20260904024610 | 56 | 247 | 0.0 | 2.0 | 0.00 | 0.23 | 0.16 | 83 | 1010.7 |
| 20260904023029 | 57 | 249 | 0.0 | 3.0 | 0.00 | 0.25 | 0.16 | 81 | 1010.6 |
| 20260904021530 | 57 | 336 | 0.0 | 1.0 | 0.00 | 0.25 | 0.16 | 80 | 1010.6 |
| 20260904020030 | 58 | 337 | 0.0 | 2.0 | 0.00 | 0.25 | 0.16 | 79 | 1010.5 |
| 20260904014534 | 58 | 270 | 0.0 | 4.0 | 0.00 | 0.28 | 0.16 | 78 | 1010.5 |
| 20260904013105 | 59 | 308 | 0.0 | 1.0 | 0.00 | 0.28 | 0.16 | 75 | 1010.4 |
| 20260904011535 | 61 | 320 | 0.0 | 4.0 | 0.00 | 0.28 | 0.16 | 72 | 1010.3 |
| 20260904010034 | 63 | 318 | 0.0 | 3.0 | 0.00 | 0.28 | 0.16 | 69 | 1010.2 |
| 20260904004636 | 61 | 356 | 0.0 | 3.0 | 0.00 | 0.28 | 0.16 | 72 | 1010.2 |
| 20260904000037 | 59 | 64 | 0.0 | 4.0 | 0.00 | 0.32 | 0.16 | 75 | 1010.5 |
| 20260903234530 | 60 | 2 | 0.0 | 6.0 | 0.00 | 0.32 | 0.16 | 73 | 1010.6 |
| 20260903233036 | 61 | 303 | 2.0 | 11.0 | 0.00 | 0.33 | 0.16 | 69 | 1010.6 |
| 20260903230034 | 62 | 312 | 2.0 | 8.0 | 0.00 | 0.33 | 0.16 | 67 | 1010.7 |
| 20260903223030 | 63 | 278 | 2.0 | 10.0 | 0.00 | 0.35 | 0.16 | 67 | 1010.5 |
| 20260903221535 | 63 | 274 | 1.0 | 7.0 | 0.00 | 0.36 | 0.16 | 66 | 1010.5 |
| 20260903214530 | 67 | 289 | 3.0 | 10.0 | 0.00 | 0.38 | 0.16 | 57 | 1010.2 |
| 20260903213032 | 66 | 308 | 1.0 | 7.0 | 0.00 | 0.40 | 0.16 | 55 | 1010.1 |
| 20260903211536 | 69 | 326 | 1.0 | 5.0 | 0.00 | 0.41 | 0.16 | 52 | 1010.1 |
| 20260903210033 | 69 | 255 | 0.0 | 6.0 | 0.00 | 0.41 | 0.16 | 54 | 1010.2 |
| 20260903204532 | 68 | 349 | 2.0 | 6.0 | 0.00 | 0.43 | 0.16 | 58 | 1010.6 |
| 20260903200035 | 67 | 341 | 1.0 | 5.0 | 0.01 | 0.46 | 0.16 | 60 | 1010.8 |
| 20260903194533 | 66 | 313 | 1.0 | 6.0 | 0.01 | 0.46 | 0.15 | 64 | 1011.1 |
| 20260903193035 | 64 | 338 | 1.0 | 5.0 | 0.02 | 0.46 | 0.15 | 69 | 1011.3 |
| 20260903191643 | 61 | 332 | 1.0 | 5.0 | 0.02 | 0.46 | 0.15 | 84 | 1011.8 |
| 20260903184533 | 59 | 68 | 0.0 | 3.0 | 0.03 | 0.46 | 0.13 | 89 | 1011.9 |
| 20260903183029 | 60 | 153 | 0.0 | 3.0 | 0.01 | 0.44 | 0.13 | 91 | 1012.0 |
| 20260903181533 | 59 | 77 | 0.0 | 4.0 | 0.01 | 0.44 | 0.13 | 94 | 1012.1 |
| 20260903180034 | 56 | 35 | 0.0 | 5.0 | 0.01 | 0.44 | 0.12 | 97 | 1012.2 |
| 20260903174529 | 55 | 248 | 0.0 | 2.0 | 0.00 | 0.43 | 0.12 | 98 | 1012.2 |
| 20260903173036 | 52 | 202 | 0.0 | 0.0 | 0.00 | 0.43 | 0.12 | 98 | 1012.3 |
| 20260903170036 | 50 | 195 | 0.0 | 2.0 | 0.00 | 0.43 | 0.10 | 98 | 1012.4 |
| 20260903154536 | 50 | 180 | 0.0 | 1.0 | 0.01 | 0.41 | 0.09 | 98 | 1012.3 |
| 20260903153035 | 49 | 180 | 0.0 | 1.0 | 0.00 | 0.40 | 0.09 | 98 | 1012.4 |
| 20260903151530 | 48 | 180 | 0.0 | 0.0 | 0.00 | 0.40 | 0.09 | 98 | 1012.3 |
| 20260903144531 | 48 | 180 | 0.0 | 0.0 | 0.00 | 0.40 | 0.09 | 98 | 1012.2 |
| 20260903143032 | 47 | 157 | 0.0 | 1.0 | 0.00 | 0.40 | 0.09 | 98 | 1012.0 |
| 20260903140113 | 47 | 157 | 0.0 | 1.0 | 0.01 | 0.40 | 0.09 | 98 | 1011.9 |
| 20260903131535 | 47 | 157 | 0.0 | 1.0 | 0.01 | 0.40 | 0.08 | 98 | 1011.6 |
| 20260903130043 | 48 | 157 | 0.0 | 0.0 | 0.00 | 0.39 | 0.08 | 98 | 1011.6 |
| 20260903130035 | 48 | 157 | 0.0 | 1.0 | 0.00 | 0.39 | 0.08 | 98 | 1011.6 |
| 20260903114536 | 49 | 157 | 0.0 | 2.0 | 0.02 | 0.39 | 0.06 | 97 | 1011.5 |
| 20260903111536 | 49 | 186 | 0.0 | 2.0 | 0.01 | 0.37 | 0.06 | 97 | 1011.4 |
| 20260903110035 | 50 | 180 | 0.0 | 3.0 | 0.01 | 0.37 | 0.05 | 97 | 1011.2 |
| 20260903103034 | 51 | 180 | 0.0 | 1.0 | 0.00 | 0.36 | 0.05 | 97 | 1011.1 |
| 20260903100036 | 51 | 180 | 0.0 | 2.0 | 0.02 | 0.36 | 0.03 | 97 | 1011.0 |
| 20260903090036 | 51 | 198 | 0.0 | 2.0 | 0.00 | 0.34 | 0.02 | 97 | 1010.9 |
| 20260903074532 | 51 | 180 | 0.0 | 1.0 | 0.02 | 0.33 | 0.00 | 97 | 1010.4 |
| 20260903060031 | 53 | 202 | 0.0 | 0.0 | 0.02 | 0.30 | 0.28 | 96 | 1010.5 |